Location: Houston
(29.7630°N, 95.3630°W)
Time: 00:22:11

Saudisat 1A - Visible Passes

Search period start: 27 November 2015 00:00
Search period end: 07 December 2015 00:00
Orbit: 568 x 628 km, 64.6° (Epoch: 26 November)

Date Brightness Start Highest point End Pass type
(mag) Time Alt. Az. Time Alt. Az. Time Alt. Az.
27 Nov 8.5 17:47:58 10° SW 17:52:16 61° WNW 17:56:39 10° NNE visible
28 Nov 9.7 17:59:04 10° WSW 18:02:57 30° WNW 18:06:53 10° N visible
29 Nov 10.6 18:10:53 10° W 18:13:47 17° NW 18:16:35 10° NNW visible
